Theta_e
296 298 299 300 305 302 303 304 304 305 302 303 302 303 303 304 301 301 303 303 303 302 302 303 302 302 301 300 300 301 301 301 301 300 299 299 299 300 300 300 300 300 300 301
296 298 298 297 300 302 303 304 303 301 300 300 300 300 300 300 301 301 302 302 302 302 300 301 302 301 300 300 300 300 300 300 300 300 299 298 299 300 300 300 300 300 300 300
297 297 295 298 298 301 300 303 302 302 299 297 297 299 300 298 299 299 300 301 301 301 302 299 300 301 300 300 300 300 300 300 300 300 299 298 299 299 299 299 299 299 300 300
296 294 295 296 297 298 300 297 300 300 300 298 296 297 299 300 301 299 299 300 300 300 299 299 298 299 300 300 300 300 300 300 299 299 298 298 299 298 298 299 299 300 300 300
298 294 295 296 297 297 298 294 296 297 296 298 297 297 298 299 299 299 299 299 298 296 296 297 297 299 299 300 300 300 300 299 299 299 298 298 299 299 299 299 299 300 300 300
296 294 295 295 295 295 295 298 298 296 296 296 296 296 302 299 298 299 301 302 302 301 299 296 294 296 297 299 299 300 299 299 299 298 298 299 299 299 299 299 299 299 300 299
297 296 295 295 297 297 297 297 299 297 295 300 295 295 301 299 298 298 298 298 298 297 297 297 295 294 295 297 298 299 299 298 298 298 298 299 299 299 299 299 299 299 299 299
299 299 296 294 297 298 297 298 300 298 298 299 296 298 299 297 296 297 296 298 298 297 297 297 296 293 293 296 297 298 298 298 297 297 298 298 299 299 299 299 299 299 300 299
296 298 295 295 295 297 298 299 297 299 292 300 301 300 299 300 300 299 299 299 299 299 298 298 297 293 293 295 296 298 298 297 297 297 298 298 298 298 298 299 299 299 299 299
298 299 295 294 294 294 297 297 299 297 296 298 299 298 301 302 302 300 299 297 297 297 296 295 294 293 292 294 295 296 297 297 297 297 298 298 298 299 299 299 299 299 299 299
297 302 296 295 295 297 297 298 296 298 300 302 300 301 296 299 300 298 296 296 295 294 293 292 292 291 292 293 294 296 296 297 297 297 297 298 298 298 298 299 299 299 299 299
296 301 298 294 293 293 294 298 297 300 298 298 300 301 298 299 297 296 295 294 294 293 292 292 291 291 291 292 293 294 296 297 297 297 297 298 298 298 298 299 299 299 299 298
299 302 294 305 298 293 292 295 297 298 299 299 301 301 296 296 295 293 294 295 295 294 293 293 292 292 292 291 291 293 293 295 296 297 297 297 297 298 298 298 298 298 298 298
298 304 303 306 303 294 294 294 296 300 303 302 301 301 299 297 295 294 294 293 293 292 291 290 290 290 290 290 290 290 291 294 295 296 296 297 297 297 297 298 298 298 298 298
293 298 307 306 302 297 294 294 296 298 300 302 304 300 298 296 296 293 292 291 290 290 289 288 288 287 288 289 288 288 289 291 292 294 295 296 296 296 296 297 297 297 297 297
292 295 298 304 305 308 310 305 296 297 298 299 299 299 297 295 292 291 290 290 289 288 287 287 286 286 286 285 285 285 286 288 290 292 294 295 295 296 297 297 296 296 296 296
291 296 294 297 299 304 308 309 298 300 300 300 301 301 297 296 292 290 289 288 288 287 286 285 284 284 284 283 282 283 286 287 288 289 290 291 293 295 295 295 295 296 295 295
292 293 295 296 294 299 304 292 295 303 296 294 298 292 293 291 289 287 286 286 286 285 284 283 282 282 282 281 280 283 284 284 285 285 286 288 289 291 293 294 294 294 294 294
294 294 296 297 295 297 297 291 290 293 291 290 291 290 290 290 290 288 286 285 284 283 282 282 280 280 280 279 278 281 282 281 282 282 283 285 286 288 290 292 293 293 293 292
290 292 293 292 295 297 291 290 291 292 290 290 289 289 289 290 294 289 284 284 282 282 280 280 278 279 278 277 276 279 280 279 278 278 280 283 285 287 288 290 292 292 292 292
283 285 289 288 291 293 290 290 290 293 290 288 287 286 286 287 286 284 282 282 281 280 279 278 276 277 276 274 275 276 277 276 275 276 278 281 284 285 288 289 290 291 291 291
286 284 283 286 291 291 289 289 289 290 289 287 284 283 283 283 282 281 281 281 279 278 277 276 275 275 274 272 273 273 274 273 272 274 277 280 282 284 286 288 289 290 290 290
282 285 285 288 289 289 288 289 285 286 287 283 282 280 279 280 279 279 278 279 278 276 275 274 273 274 272 271 271 271 270 271 270 272 274 277 281 283 285 287 288 289 289 289
281 282 288 287 283 286 284 282 281 281 280 278 277 277 276 275 277 277 277 277 275 274 273 271 271 272 271 270 269 269 269 268 269 270 272 275 278 280 283 285 287 287 287 288
284 283 282 286 288 284 281 278 278 279 277 276 275 274 274 274 274 274 274 274 273 271 271 269 269 270 269 268 267 267 268 267 267 268 271 273 275 278 281 284 285 286 287 288
280 281 286 287 277 278 279 276 274 275 273 273 272 272 272 271 271 271 271 270 270 269 268 268 268 267 266 265 266 265 266 266 266 267 269 270 273 275 280 282 284 285 287 287
Wind_Speed
4 4 10 15 21 1 4 4 5 2 2 3 8 20 17 17 10 12 17 18 18 16 23 21 30 35 34 36 39 41 44 47 45 43 38 34 33 32 29 27 24 23 22 20
2 16 16 7 6 7 6 5 10 5 4 4 9 25 18 16 22 19 21 21 22 21 12 16 22 28 35 39 40 42 45 44 48 45 43 30 38 35 33 29 26 24 24 22
13 7 6 13 6 11 10 18 6 9 5 4 6 23 15 10 13 13 17 21 19 22 21 11 15 26 30 36 43 43 44 46 49 48 43 29 32 26 29 29 28 28 25 22
11 5 8 6 11 10 15 10 7 6 3 5 1 12 8 4 14 8 11 15 18 14 12 11 14 16 30 35 33 39 44 46 46 50 44 40 35 25 28 37 35 30 27 24
10 10 8 11 9 13 7 5 8 4 4 2 3 3 6 3 6 9 13 13 10 9 9 12 13 16 25 29 33 35 38 42 45 51 46 43 33 30 33 37 35 31 29 26
5 1 6 7 3 7 9 7 6 4 3 3 10 8 32 7 8 5 3 3 2 1 5 7 6 13 17 25 29 31 35 37 41 48 45 44 37 37 33 36 35 35 32 29
3 6 4 4 6 2 3 7 0 2 0 9 2 6 23 12 11 7 8 7 7 7 7 4 5 6 10 20 25 29 32 33 38 44 44 45 42 43 42 41 40 38 36 33
8 6 12 8 9 10 8 8 7 9 6 4 3 10 8 8 10 10 7 8 7 7 4 3 5 6 7 17 23 27 28 28 31 36 38 41 42 44 42 44 41 40 41 38
6 6 0 2 1 9 7 9 4 6 2 2 5 8 8 13 13 9 6 5 6 3 2 3 2 2 7 14 21 26 26 27 34 35 36 38 40 40 41 42 39 39 38 36
5 3 0 1 1 1 5 3 3 1 3 4 6 7 7 12 7 6 9 8 7 7 7 6 6 5 2 8 16 21 27 29 33 35 36 37 43 44 42 40 39 37 35 34
3 5 1 2 7 9 4 4 2 3 5 6 2 6 5 3 3 8 8 10 11 9 8 8 7 7 8 3 8 17 22 24 27 32 34 34 38 41 42 41 41 39 36 36
6 2 8 11 1 2 4 8 8 5 6 3 2 6 4 5 8 11 10 12 13 14 12 12 11 10 13 11 5 7 16 22 28 33 36 37 38 40 41 42 42 42 40 36
5 4 2 0 2 3 3 4 4 4 3 7 6 6 5 6 9 10 11 11 11 13 14 13 15 14 13 21 20 11 5 13 18 24 29 33 36 38 41 43 42 40 39 37
21 5 6 15 10 6 6 8 14 14 5 13 7 4 3 5 7 7 8 9 11 12 13 13 13 13 14 19 21 23 20 7 10 16 22 29 33 36 37 38 39 39 39 38
9 8 11 20 20 3 4 7 14 15 24 16 24 14 9 6 6 6 6 9 12 14 16 15 14 13 13 20 21 22 22 20 11 11 17 23 25 27 29 31 34 35 37 38
2 6 15 15 16 17 21 12 11 21 20 20 19 12 5 10 11 11 11 10 11 11 13 14 15 15 15 19 21 21 21 23 19 9 11 15 19 24 28 30 31 33 36 37
4 6 9 4 13 14 12 12 10 8 6 13 17 14 3 7 11 11 10 10 10 11 11 13 13 13 18 20 22 21 22 22 22 19 15 11 11 18 23 26 30 34 37 38
13 12 5 7 7 6 3 13 6 15 10 10 6 7 8 9 10 12 12 10 10 10 11 11 11 14 17 19 23 20 20 21 21 22 23 21 16 14 17 23 28 33 35 38
9 8 4 4 6 9 12 10 8 5 6 10 7 7 4 10 9 12 12 10 10 10 10 10 13 13 18 23 24 20 19 20 21 23 22 25 23 19 16 21 26 31 31 33
8 9 4 3 4 3 5 10 7 5 3 8 9 11 12 9 3 4 10 9 9 10 13 14 18 17 20 23 24 22 20 19 21 23 24 23 24 21 17 19 23 27 31 32
5 4 2 1 3 1 8 12 9 1 3 7 8 9 12 9 6 6 8 9 11 12 16 17 18 17 19 24 23 20 19 22 26 25 24 21 21 22 17 15 20 24 26 26
3 3 3 2 2 6 7 3 4 1 4 5 4 6 6 6 6 8 8 9 10 11 16 17 16 15 16 18 18 20 20 25 29 29 28 28 25 25 21 14 14 20 23 23
4 4 3 3 3 2 2 2 6 4 4 3 4 5 5 4 5 7 7 8 7 10 13 14 17 14 13 17 18 18 22 25 31 28 26 24 24 22 26 20 14 15 18 17
5 2 4 5 5 2 3 5 6 7 7 6 5 4 3 2 5 6 6 8 9 12 12 15 17 16 15 17 18 18 21 25 24 23 23 24 22 25 22 23 15 15 15 15
7 2 4 5 5 3 4 5 5 4 6 5 5 5 5 5 6 7 8 8 9 12 13 15 15 16 18 20 20 21 21 24 23 22 20 20 21 19 18 19 20 16 20 20
2 4 2 5 2 2 3 4 7 5 5 6 7 8 8 8 9 8 7 9 10 11 14 15 15 15 18 22 21 21 24 24 23 23 20 21 22 21 16 17 21 19 17 20
Wind_Direction
212 172 205 200 210 252 147 217 231 235 171 240 238 264 262 266 258 246 256 256 255 244 244 223 214 213 206 209 206 205 200 204 201 198 195 199 201 203 202 205 203 202 201 198
111 233 220 198 217 233 244 269 258 277 258 202 294 278 271 260 258 243 247 252 248 247 247 221 208 201 201 199 200 201 203 197 199 197 195 193 200 201 204 204 204 205 203 201
200 210 172 187 181 206 233 235 226 241 331 256 320 280 270 243 257 251 248 247 252 244 250 218 203 203 202 201 197 197 197 197 197 196 196 193 196 199 200 203 203 204 204 204
236 196 144 179 212 171 240 198 182 189 127 245 63 285 217 221 252 223 239 238 245 246 243 225 206 203 205 209 202 196 196 195 194 195 190 187 187 188 200 200 202 203 203 204
224 173 181 198 199 181 234 140 166 150 173 16 198 256 261 64 269 265 241 244 257 248 237 241 213 206 207 202 199 197 193 192 190 194 192 191 190 193 200 202 203 202 203 205
241 139 178 197 86 164 150 85 61 56 106 280 181 169 277 222 220 259 249 189 213 228 273 256 230 203 197 195 194 194 192 191 189 191 192 192 191 191 192 198 200 200 202 203
129 210 177 156 100 61 151 125 232 333 359 236 215 187 251 305 274 230 259 278 284 298 291 267 219 192 177 184 187 188 189 189 188 190 191 193 195 198 198 199 198 198 200 202
183 272 170 179 193 165 198 175 171 195 193 228 105 235 248 232 280 259 249 261 287 309 308 287 220 202 186 183 182 186 187 187 186 189 191 194 198 200 203 205 202 203 204 207
159 261 134 328 177 153 188 219 140 99 57 48 219 275 272 270 272 307 330 282 257 250 352 7 15 209 198 185 185 184 184 182 188 189 191 194 198 200 203 209 209 210 209 210
234 277 202 131 258 298 160 176 102 10 171 227 261 282 237 296 302 360 7 6 336 17 11 22 19 8 336 204 194 188 188 186 189 191 194 196 201 207 210 210 208 210 212 211
182 178 91 84 216 186 147 182 214 146 171 185 241 258 222 293 42 53 15 34 33 36 17 14 17 21 20 10 195 194 192 188 188 193 197 198 202 206 210 212 212 213 212 210
244 202 216 203 253 350 329 208 167 146 225 236 156 263 5 53 103 69 35 35 36 38 32 22 24 29 27 19 2 210 197 197 200 203 205 206 209 209 212 215 216 214 213 212
326 244 240 71 5 17 214 215 229 97 105 202 154 261 356 82 71 45 55 35 34 30 26 24 18 23 26 25 18 4 269 220 210 207 207 209 213 213 215 217 217 216 215 213
339 213 245 240 221 138 187 202 204 203 210 222 211 143 271 56 70 42 41 39 34 35 29 24 19 17 18 20 17 11 17 325 238 215 214 218 218 219 220 221 220 217 216 215
359 292 271 237 260 179 206 213 203 207 221 216 230 216 217 156 107 75 59 45 39 26 21 19 15 17 16 12 10 7 3 15 348 247 222 222 226 228 228 226 223 221 218 217
347 296 301 303 265 248 249 230 201 209 227 239 256 254 99 90 84 54 41 43 49 39 25 16 11 13 16 10 0 355 356 359 8 337 275 253 236 228 225 227 226 223 222 220
277 298 331 269 342 295 253 233 192 198 211 223 239 253 3 61 61 55 56 44 43 41 37 20 14 10 8 5 359 351 353 1 14 22 11 343 289 257 245 236 226 223 223 219
254 261 251 279 350 269 14 15 328 210 63 5 326 48 48 96 91 68 49 44 37 24 24 24 7 359 4 6 4 358 6 10 10 12 11 6 352 311 276 248 236 232 225 221
258 268 293 235 227 284 310 17 330 349 75 14 38 29 40 143 110 61 36 33 25 23 18 14 7 3 2 5 360 359 7 14 12 4 355 351 351 333 305 261 250 240 229 223
321 244 222 341 288 269 338 325 309 290 65 8 16 26 9 147 153 64 16 19 15 19 19 10 1 5 11 7 360 356 360 8 4 352 342 337 347 340 316 280 261 253 239 231
324 320 208 288 244 257 327 320 342 1 62 46 32 18 29 47 29 10 1 7 10 12 8 10 9 11 6 359 358 358 353 358 345 344 343 341 341 337 330 300 277 258 239 227
255 290 276 296 252 251 344 22 69 242 100 84 69 29 23 14 11 360 351 354 358 5 4 7 1 359 359 358 357 353 353 344 343 343 348 353 345 346 342 324 294 261 239 219
302 219 268 237 289 185 354 344 55 47 81 72 87 55 19 355 344 337 337 355 2 10 358 356 348 342 350 357 358 350 342 341 338 339 337 343 352 345 351 340 302 248 233 219
277 245 268 350 314 357 78 63 66 57 74 71 63 61 64 347 320 323 329 345 348 349 353 352 342 337 340 348 347 342 339 341 337 331 332 333 344 353 347 344 318 265 228 221
264 320 268 249 247 121 94 61 27 57 55 34 13 15 11 350 340 334 328 328 333 336 340 336 325 325 328 334 335 335 337 342 335 332 332 337 335 339 342 339 327 288 263 242
182 220 211 272 114 293 53 28 6 15 11 8 356 341 346 346 331 329 312 310 311 310 314 314 314 315 319 321 320 324 334 341 337 329 335 335 331 324 339 340 330 325 291 269